• MPC Preparation (Info)

  • MPEC 2022-T145 : 2005 QF88

    The following Minor Planet Electronic Circular may be linked-to from your own Web pages, but must not otherwise be redistributed electronically.

    A form allowing access to any MPEC is at the bottom of this page.


    Read MPEC 2022-T144 Read MPEC 2022-T146


    M.P.E.C. 2022-T145                             Issued 2022 October 15, 14:06 UT
    
         The Minor Planet Electronic Circulars contain information on unusual
             minor planets and routine data on comets.  They are published
        on behalf of Division F of the International Astronomical Union by the
              Minor Planet Center, Smithsonian Astrophysical Observatory,
                              Cambridge, MA 02138, U.S.A.
    
                 Prepared using the Tamkin Foundation Computer Network
    
                                  MPC@CFA.HARVARD.EDU
                URL https://www.minorplanetcenter.net/    ISSN 1523-6714
    
                                    2005 QF88                                
    
    
                                Revision to MPEC 2005-R7                            
    
    Additional Observations:
         K05Q88F  C2015 06 23.42546916 56 45.191-07 20 54.95         22.61GVET145F51
         K05Q88F  C2015 06 23.43742116 56 44.219-07 20 52.72         22.39GVET145F51
         K05Q88F  C2015 06 23.44930616 56 43.261-07 20 50.53         22.55GVET145F51
         K05Q88F  C2015 07 06.31705816 41 39.354-07 01 54.93         23.77GVET145F51
         K05Q88F  C2015 07 06.32748516 41 38.678-07 01 54.93         23.33GVET145F51
         K05Q88F  C2015 07 07.27627016 40 42.246-07 02 15.62         22.38GVET145F51
         K05Q88F  C2015 08 10.30211416 32 30.611-09 38 43.92         22.44GVET145F51
         K05Q88F  C2022 08 08.54637902 18 13.804+18 19 45.15         21.58GVET145F52
         K05Q88F KC2022 10 07.37102105 10 12.742+12 52 07.68         21.82GVET145I52
         K05Q88F KC2022 10 07.37941905 10 13.292+12 52 01.31         21.63GVET145I52
         K05Q88F KC2022 10 07.38780005 10 13.847+12 51 55.55         21.47GVET145I52
    
    Observer details:
    F51 Pan-STARRS 1, Haleakala.  Observers J. Bulger, K. Chambers, T. Lowe, A.
        Schultz, I. Smith.  Measurers S. Chastel, J. Fairlamb, M. Huber, Y.
        Ramanjooloo, R. Wainscoat, R. Weryk.  1.8-m Ritchey-Chretien + CCD.
    F52 Pan-STARRS 2, Haleakala.  Observers J. Bulger, K. Chambers, T. Dukes, T.
        Lowe, A. Schultz, I. Smith.  Measurers S. Chastel, J. Fairlamb, M. Huber,
        Y. Ramanjooloo, R. Wainscoat, R. Weryk.  1.8-m Ritchey-Chretien + CCD.
    I52 Steward Observatory, Mt. Lemmon Station.  Observers J. K. Hogan, G. J.
        Leonard.  Measurers E. J. Christensen, D. Fay, J. B. Fazekas, D. C. Fuls,
        A. R. Gibbs, A. D. Grauer, H. Groeller, J. K. Hogan, R. A. Kowalski, S. M.
        Larson, G. J. Leonard, D. Rankin, R. L. Seaman, A. Serrano, F. C. Shelly,
        K. W. Wierzchos.  1.0-m prime focus + CCD.
    
    First and last observations above in comparison with prediction:
    Residuals in seconds of arc (or two decimals in degrees), reference and Delta-T
    150623 F51 0.08- 0.00-    221007 I52 0.19- 0.03-    MPO 97797   -0.08 days
    
    Orbital elements:
    2005 QF88                                                Earth MOID = 0.2172 AU
    Epoch 2022 Aug. 9.0 TT = JDT 2459800.5                  Veres                   
    M 355.74165              (2000.0)            P               Q                  
    n   0.29087488     Peri.  176.49063     +0.99833631     +0.05765773             
    a   2.2559626      Node   180.20553     -0.05542778     +0.95757712             
    e   0.4586446      Incl.    7.01216     -0.01588607     +0.28235022             
    P   3.39           H   20.86          G   0.15           U   0                  
    Residuals in seconds of arc
    050831 704  0.6-  0.5+    050901 176  0.1-  0.4-    050924 703  0.8-  1.3+
    050831 704  0.2-  0.8+    050901 176  0.3-  0.1-    050924 703  0.7-  0.0
    050831 704  0.0   1.4+    050901 176  0.3-  0.1+    050924 644  0.1+  0.0
    050831 704  0.2+  0.1-    050901 176  0.4-  0.2+    050924 703  0.3-  0.1+
    050831 683  0.1-  1.4-    050907 012  0.2+  0.0     050924 703  0.4-  0.5-
    050831 683  0.4-  1.3-    050907 012  0.1+  0.3-    051001 704  0.3-  0.9+
    050831 683  0.4-  0.3+    050907 012  0.3+  0.5-    051001 704  2.1-  0.7-
    050831 151  0.0   0.4-    050907 012  0.4+  0.2-    051001 704  0.1-  1.4+
    050831 151  0.6+  0.2+    050907 012  0.1+  0.0     051001 704  0.4+  1.3-
    050831 151  0.9+  0.7+    050907 012  0.5+  0.6-    051001 704  0.2+  0.1+
    050831 151  1.2+  1.0+    050907 012  0.2-  0.2+    051001 699  0.3-  0.4+
    050831 A13  0.8+  0.0     050910 711  0.7+  0.1-    051001 699  0.2+  0.6-
    050831 A13  0.1+  0.2-    050910 711  0.6-  0.5+    051001 699  0.5+  0.1+
    050831 A13  0.7+  0.2-    050910 711  0.2+  0.6+    051001 699  0.1+  0.1+
    050831 A13  0.7-  0.6-    050910 A56  0.0   0.9-    051003 703  0.3-  0.2+
    050901 461  0.2-  0.4+    050910 A56  1.5-  0.3+    051003 703  0.4+  0.4-
    050901 461  0.4-  0.1-    050910 A56  0.6-  0.6+    051003 703  0.0   0.2+
    050901 461  0.1+  0.0     050910 A56  1.1-  0.0     051003 703  0.2+  0.8-
    050901 I77  0.4-  0.2-    050911 704  1.0+  0.8-    051011 703  1.1-  0.2+
    050901 I77  0.9-  0.4-    050911 704  0.1+  0.5-    051011 703  0.6-  0.3-
    050901 I77  1.1-  0.5-    050911 704  0.5+  0.5-    051011 703  1.1-  0.2+
    050901 682  1.3+  0.7-    050911 704  0.4-  0.0     051011 703  0.6-  0.7-
    050901 682 (2.8+  0.4+)   050911 704  0.4-  0.6-    051022 644  0.1-  0.1+
    050901 682  1.7+  0.2-    050915 703  0.4+  0.3-    051022 644  0.1+  0.1-
    050901 651  0.1-  0.2-    050915 703  0.2+  1.0-    051022 644  0.2+  0.1-
    050901 651  0.0   0.2-    050915 703  1.1-  0.5-    051109 461  0.1+  0.8-
    050901 651  0.3+  0.2+    050915 703 (0.8+  3.0-)   051109 461  0.4-  0.3+
    050901 H06  0.5+  0.7+    050922 644  0.1+  0.0     051112 448  1.0+  0.0
    050901 683  1.4+  0.3-    050922 644  0.1+  0.0     051112 448  0.0   0.8-
    050901 H06  0.3-  0.2-    050922 644  0.3+  0.5+    051112 448  0.6+  0.4+
    050901 683  1.0+  0.6-    050922 461  0.1+  0.0     150623 F51  0.0   0.0
    050901 673  0.5-  0.7-    050922 461  0.1-  0.3+    150623 F51  0.0   0.0
    050901 673  0.5-  0.2-    050923 461  0.3-  0.2+    150623 F51  0.0   0.1-
    050901 683  0.1-  1.1+    050923 691  0.6-  0.4-    150706 F51  0.0   0.1-
    050901 673  0.0   0.3-    050923 691  0.0   0.3-    150706 F51  0.0   0.1+
    050901 673  0.2-  0.5-    050923 691  0.0   0.1-    150707 F51  0.0   0.0
    050901 599  0.1+  0.2-    050924 703  0.7+  0.3-    150810 F51  0.1+  0.1+
    050901 599  0.3+  0.2-    050924 703  1.7+  0.1-    220808 F52  0.1+  0.1+
    050901 599  0.1+  0.3-    050924 703  0.2-  1.0+    221007 I52  0.1+  0.1-
    050901 599  1.3-  0.1-    050924 644  0.1-  0.4+    221007 I52  0.1-  0.2-
    050901 176  0.0   0.5-    050924 644  0.2+  0.0     221007 I52  0.2-  0.3+
    
    Ephemeris:
    2005 QF88                a,e,i = 2.26, 0.46, 7                   q = 1.2213
    Date    TT    R. A. (2000) Decl.     Delta      r    Elong.  Phase     V
    2022 09 15    04 27 04.1 +17 07 19   0.5274  1.2437   104.0    51.7    21.9
    ...
    2022 09 30    04 59 32.3 +14 24 15   0.5175  1.2821   111.1    46.8    21.7
    ...
    2022 10 08    05 10 56.6 +12 44 14   0.5137  1.3092   116.1    43.3    21.7
    ...
    2022 10 14    05 16 41.2 +11 27 31   0.5119  1.3322   120.4    40.2    21.6
    2022 10 15    05 17 24.4 +11 14 45   0.5117  1.3363   121.2    39.7    21.6
    2022 10 16    05 18 03.5 +11 02 02   0.5116  1.3404   122.0    39.1    21.6
    ...
    2022 10 22    05 20 31.9 +09 46 59   0.5115  1.3660   127.0    35.6    21.5
    ...
    2022 10 30    05 20 07.0 +08 13 43   0.5149  1.4029   134.5    30.3    21.5
    ...
    2022 11 14    05 09 45.9 +05 59 01   0.5378  1.4786   149.6    19.8    21.4
    
    A. U. Tomatic                (C) Copyright 2022 MPC           M.P.E.C. 2022-T145
    


    Read MPEC 2022-T144 Read MPEC 2022-T146


    MPEC number:

    Enter an MPEC number in one of the following forms:

    • 1997-B01 (the full form)
    • J97B01 (the packed version of the full form)
    • B01 (the abbreviated form)